Zurück zum Katalog

FENGYUN 1C DEB

AktivSSO
NORAD 30730·DEBRIS·🇨🇳 China

Gestartet May 10, 1999 von Taiyuan Satellite Launch Center

Loading…

Nächste Überflüge (nächste 24 Stunden)

TLE

AktuellSource: Space-Track

Epoche: Sep 14, 2026, 08:32 UTC

1 30730U 99025ASQ 26257.35567426  .00001121  00000-0  46882-3 0  9994
2 30730  98.5957 296.6343 0075553 325.2550  97.2500 14.26539636  9241

Verfolge FENGYUN 1C DEB in Echtzeit mit AllMySat

Download on the App Store